Sturgis, MI

12:13 AM EST on December 14, 2019 (GMT -0500)
Kirsch Municipal

Weather History for KIRS - October, 2019

Change the Weather History Date:

Monday, October 14, 2019

  Actual Average (KHAI) Record (KHAI)
Temperature  
Mean Temperature 45 °F -  
Max Temperature 54 °F 63 °F 85 °F (1975)
Min Temperature 36 °F 40 °F 25 °F (1993)
Degree Days  
Heating Degree Days 20    
Moisture  
Dew Point 32 °F    
Average Humidity 58    
Maximum Humidity 87    
Minimum Humidity 36    
Precipitation  
Precipitation 0.00 in - - ()
Sea Level Pressure  
Sea Level Pressure 30.02 in    
Wind  
Wind Speed 6 mph ()    
Max Wind Speed 13 mph    
Max Gust Speed 16 mph    
Visibility 10.0 miles    
Events      
Averages and records for this station are not official NWS values.
T = Trace of Precipitation, MM = Missing Value Source: Averaged Metar Reports

Daily Weather History Graph

Daily Weather History Graph

Search for Another Location

Airport or City:

Astronomy

Oct. 14, 2019 Rise Set
Actual Time 7:52 AM EDT 7:02 PM EDT
Civil Twilight 7:24 AM EDT 7:30 PM EDT
Nautical Twilight 6:52 AM EDT 8:02 PM EDT
Astronomical Twilight 6:20 AM EDT 8:34 PM EDT
Moon 7:51 PM EDT 8:23 AM EDT
Length of Visible Light 12h 05m
Length of Day
11h 09m
Waxing Gibbous, 99% of the Moon is Illuminated
Oct 14
Waxing Gibbous
Oct 21
Last Quarter
Oct 27
New
Nov 4
First Quarter
Nov 12
Full

Hourly Weather History & Observations

Time (EDT) Temp. Windchill Dew Point Humidity Pressure Visibility Wind Dir Wind Speed Gust Speed Precip Events Conditions
12:17 AM 47.8 °F - 36.5 °F 65% 29.91 in 10.0 mi West 8.1 mph - N/A   Overcast
12:35 AM 47.7 °F - 36.3 °F 65% 29.91 in 10.0 mi WNW 6.9 mph - N/A   Overcast
12:55 AM 47.5 °F - 34.7 °F 61% 29.92 in 10.0 mi West 5.8 mph - N/A   Overcast
12:56 AM 47.5 °F - 34.9 °F 62% 29.92 in 10.0 mi West 6.9 mph - N/A   Overcast
1:15 AM 47.3 °F - 33.8 °F 59% 29.92 in 10.0 mi WNW 6.9 mph - N/A   Overcast
1:20 AM 47.3 °F - 33.6 °F 59% 29.92 in 10.0 mi West 8.1 mph - N/A   Overcast
1:38 AM 46.9 °F - 32.9 °F 58% 29.92 in 10.0 mi West 8.1 mph - N/A   Overcast
1:56 AM 46.8 °F - 32.5 °F 58% 29.92 in 10.0 mi West 8.1 mph - N/A   Overcast
2:15 AM 46.6 °F - 32.5 °F 58% 29.93 in 10.0 mi WNW 5.8 mph - N/A   Overcast
2:16 AM 46.6 °F - 32.7 °F 59% 29.93 in 10.0 mi West 5.8 mph - N/A   Overcast
2:35 AM 46.0 °F 43.1 °F 32.7 °F 60% 29.93 in 10.0 mi West 5.8 mph - N/A   Overcast
2:36 AM 46.0 °F 43.1 °F 32.7 °F 60% 29.93 in 10.0 mi WNW 5.8 mph - N/A   Overcast
2:59 AM 45.5 °F 42.5 °F 32.9 °F 61% 29.93 in 10.0 mi West 5.8 mph - N/A   Overcast
3:17 AM 45.5 °F 44.2 °F 34.0 °F 64% 29.94 in 10.0 mi West 3.5 mph - N/A   Overcast
3:35 AM 45.9 °F 42.9 °F 33.3 °F 61% 29.94 in 10.0 mi West 5.8 mph - N/A   Overcast
3:36 AM 45.9 °F 42.9 °F 33.3 °F 61% 29.94 in 10.0 mi West 5.8 mph - N/A   Overcast
3:55 AM 45.9 °F 42.9 °F 33.1 °F 61% 29.94 in 10.0 mi West 5.8 mph - N/A   Overcast
3:56 AM 45.9 °F 43.6 °F 33.1 °F 61% 29.94 in 10.0 mi West 4.6 mph - N/A   Overcast
4:15 AM 45.7 °F 43.4 °F 33.6 °F 63% 29.94 in 10.0 mi West 4.6 mph - N/A   Overcast
4:20 AM 45.5 °F 41.8 °F 33.4 °F 63% 29.94 in 10.0 mi West 6.9 mph - N/A   Overcast
4:38 AM 45.7 °F 42.0 °F 33.3 °F 62% 29.94 in 10.0 mi West 6.9 mph - N/A   Overcast
4:56 AM 45.7 °F 41.5 °F 32.9 °F 61% 29.95 in 10.0 mi West 8.1 mph - N/A   Overcast
5:15 AM 45.5 °F 42.5 °F 32.9 °F 61% 29.95 in 10.0 mi West 5.8 mph - N/A   Overcast
5:35 AM 44.6 °F 40.2 °F 32.9 °F 64% 29.96 in 10.0 mi West 8.1 mph - N/A   Mostly Cloudy
5:36 AM 44.6 °F 40.2 °F 32.9 °F 64% 29.96 in 10.0 mi West 8.1 mph - N/A   Mostly Cloudy
5:59 AM 43.9 °F 39.9 °F 32.5 °F 64% 29.97 in 10.0 mi West 6.9 mph - N/A   Clear
6:18 AM 43.0 °F 39.5 °F 32.5 °F 67% 29.97 in 10.0 mi West 5.8 mph - N/A   Clear
6:36 AM 42.6 °F 39.0 °F 32.2 °F 67% 29.98 in 10.0 mi West 5.8 mph - N/A   Clear
6:55 AM 41.9 °F 38.2 °F 32.0 °F 68% 29.99 in 10.0 mi West 5.8 mph - N/A   Scattered Clouds
6:56 AM 41.9 °F 39.0 °F 32.0 °F 68% 29.99 in 10.0 mi West 4.6 mph - N/A   Scattered Clouds
7:15 AM 41.9 °F 38.2 °F 32.9 °F 70% 29.99 in 10.0 mi WSW 5.8 mph - N/A   Mostly Cloudy
7:16 AM 41.9 °F 39.0 °F 32.9 °F 70% 29.99 in 10.0 mi WSW 4.6 mph - N/A   Mostly Cloudy
7:39 AM 42.3 °F 38.6 °F 32.2 °F 67% 29.99 in 10.0 mi WSW 5.8 mph - N/A   Overcast
7:57 AM 41.5 °F 37.8 °F 32.4 °F 70% 30.00 in 10.0 mi WSW 5.8 mph - N/A   Overcast
8:16 AM 42.1 °F 38.4 °F 32.0 °F 67% 30.01 in 10.0 mi WSW 5.8 mph - N/A   Overcast
8:35 AM 42.1 °F 38.4 °F 32.2 °F 68% 30.02 in 10.0 mi WSW 5.8 mph - N/A   Overcast
8:36 AM 42.1 °F 37.7 °F 32.2 °F 68% 30.02 in 10.0 mi WSW 6.9 mph - N/A   Overcast
8:55 AM 42.4 °F 38.1 °F 32.0 °F 67% 30.03 in 10.0 mi WSW 6.9 mph - N/A   Overcast
9:00 AM 42.8 °F 38.0 °F 32.0 °F 66% 30.03 in 10.0 mi WSW 8.1 mph - N/A   Overcast
9:18 AM 44.2 °F 39.7 °F 32.0 °F 62% 30.04 in 10.0 mi West 8.1 mph - N/A   Mostly Cloudy
9:36 AM 45.7 °F 41.0 °F 31.8 °F 58% 30.05 in 10.0 mi West 9.2 mph - N/A   Scattered Clouds
9:55 AM 46.0 °F 41.9 °F 32.0 °F 58% 30.05 in 10.0 mi West 8.1 mph - N/A   Overcast
9:56 AM 46.0 °F 41.0 °F 32.2 °F 58% 30.05 in 10.0 mi West 10.4 mph 16.1 mph N/A   Overcast
10:15 AM 47.5 °F - 32.2 °F 55% 30.06 in 10.0 mi WSW 9.2 mph - N/A   Mostly Cloudy
10:16 AM 47.5 °F - 32.2 °F 55% 30.06 in 10.0 mi West 12.7 mph - N/A   Mostly Cloudy
10:39 AM 47.8 °F - 32.0 °F 54% 30.07 in 10.0 mi West 9.2 mph - N/A   Mostly Cloudy
10:57 AM 47.8 °F - 30.7 °F 52% 30.07 in 10.0 mi WNW 8.1 mph 16.1 mph N/A   Scattered Clouds
11:15 AM 48.4 °F - 30.0 °F 49% 30.06 in 10.0 mi West 11.5 mph - N/A   Mostly Cloudy
11:16 AM 48.6 °F - 29.8 °F 48% 30.06 in 10.0 mi West 10.4 mph - N/A   Mostly Cloudy
11:36 AM 47.8 °F - 30.0 °F 50% 30.07 in 10.0 mi West 8.1 mph - N/A   Overcast
11:55 AM 48.2 °F - 30.2 °F 50% 30.07 in 10.0 mi WNW 8.1 mph - N/A   Overcast
12:00 PM 48.4 °F - 30.0 °F 49% 30.07 in 10.0 mi WNW 8.1 mph - N/A   Mostly Cloudy
12:18 PM 49.1 °F - 28.9 °F 46% 30.07 in 10.0 mi WNW 6.9 mph - N/A   Mostly Cloudy
12:55 PM 50.7 °F - 29.7 °F 44% 30.07 in 10.0 mi West 8.1 mph - N/A   Mostly Cloudy
12:56 PM 50.7 °F - 29.7 °F 44% 30.07 in 10.0 mi West 8.1 mph - N/A   Mostly Cloudy
1:15 PM 50.2 °F - 29.3 °F 45% 30.07 in 10.0 mi West 10.4 mph - N/A   Overcast
1:16 PM 50.2 °F - 29.7 °F 45% 30.07 in 10.0 mi West 10.4 mph - N/A   Overcast
1:39 PM 52.5 °F - 29.3 °F 41% 30.06 in 10.0 mi SW 4.6 mph - N/A   Mostly Cloudy
1:58 PM 53.1 °F - 30.4 °F 42% 30.05 in 10.0 mi NW 6.9 mph - N/A   Mostly Cloudy
2:16 PM 53.8 °F - 29.1 °F 39% 30.05 in 10.0 mi West 9.2 mph - N/A   Mostly Cloudy
2:35 PM 53.6 °F - 29.5 °F 40% 30.05 in 10.0 mi West 9.2 mph - N/A   Mostly Cloudy
2:36 PM 53.8 °F - 29.5 °F 39% 30.05 in 10.0 mi West 9.2 mph - N/A   Overcast
2:55 PM 52.2 °F - 28.8 °F 41% 30.05 in 10.0 mi West 8.1 mph - N/A   Scattered Clouds
2:56 PM 52.3 °F - 28.6 °F 40% 30.05 in 10.0 mi West 8.1 mph - N/A   Scattered Clouds
3:19 PM 54.5 °F - 28.6 °F 37% 30.05 in 10.0 mi WSW 10.4 mph - N/A   Scattered Clouds
3:37 PM 54.7 °F - 28.0 °F 36% 30.06 in 10.0 mi West 10.4 mph - N/A   Scattered Clouds
3:55 PM 54.1 °F - 27.5 °F 36% 30.06 in 10.0 mi West 10.4 mph - N/A   Clear
4:15 PM 54.5 °F - 28.4 °F 37% 30.06 in 10.0 mi WNW 4.6 mph - N/A   Clear
4:16 PM 54.5 °F - 28.4 °F 37% 30.06 in 10.0 mi WNW 4.6 mph - N/A   Clear
4:35 PM 54.1 °F - 28.0 °F 37% 30.05 in 10.0 mi WNW 6.9 mph - N/A   Clear
4:40 PM 54.3 °F - 28.0 °F 36% 30.06 in 10.0 mi West 8.1 mph - N/A   Clear
4:58 PM 54.5 °F - 28.4 °F 37% 30.06 in 10.0 mi West 8.1 mph - N/A   Clear
5:16 PM 54.1 °F - 28.2 °F 37% 30.06 in 10.0 mi West 4.6 mph - N/A   Clear
5:35 PM 54.0 °F - 29.5 °F 39% 30.06 in 10.0 mi West 5.8 mph - N/A   Clear
5:36 PM 54.0 °F - 29.1 °F 39% 30.06 in 10.0 mi West 5.8 mph - N/A   Clear
5:55 PM 53.1 °F - 28.8 °F 39% 30.06 in 10.0 mi West 5.8 mph - N/A   Clear
5:56 PM 53.1 °F - 28.6 °F 39% 30.06 in 10.0 mi West 5.8 mph - N/A   Clear
6:19 PM 52.2 °F - 29.3 °F 41% 30.07 in 10.0 mi WNW 4.6 mph - N/A   Clear
6:37 PM 51.1 °F - 29.1 °F 43% 30.07 in 10.0 mi WNW 3.5 mph - N/A   Clear
6:55 PM 48.6 °F - 31.5 °F 52% 30.07 in 10.0 mi Calm Calm - N/A   Clear
6:56 PM 48.6 °F - 31.3 °F 51% 30.07 in 10.0 mi Calm Calm - N/A   Clear
7:15 PM 47.5 °F - 31.1 °F 53% 30.07 in 10.0 mi Calm Calm - N/A   Clear
7:35 PM 43.9 °F - 33.4 °F 67% 30.07 in 10.0 mi Calm Calm - N/A   Clear
7:58 PM 42.8 °F - 34.5 °F 73% 30.08 in 10.0 mi Calm Calm - N/A   Clear
8:16 PM 42.6 °F - 34.7 °F 74% 30.08 in 10.0 mi Calm Calm - N/A   Clear
8:35 PM 41.9 °F - 33.8 °F 73% 30.09 in 10.0 mi Calm Calm - N/A   Clear
8:55 PM 40.5 °F - 33.3 °F 75% 30.09 in 10.0 mi Calm Calm - N/A   Clear
9:18 PM 39.9 °F - 33.8 °F 79% 30.09 in 10.0 mi Calm Calm - N/A   Clear
9:37 PM 39.4 °F - 33.3 °F 79% 30.09 in 10.0 mi Calm Calm - N/A   Clear
9:55 PM 39.9 °F - 33.3 °F 77% 30.09 in 10.0 mi Calm Calm - N/A   Clear
10:15 PM 38.3 °F - 33.8 °F 84% 30.10 in 10.0 mi Calm Calm - N/A   Clear
10:35 PM 38.5 °F - 33.6 °F 83% 30.09 in 10.0 mi Calm Calm - N/A   Clear
10:58 PM 36.7 °F - 32.9 °F 86% 30.09 in 10.0 mi Calm Calm - N/A   Clear
11:16 PM 37.9 °F - 33.8 °F 85% 30.09 in 10.0 mi Calm Calm - N/A   Clear
11:35 PM 37.6 °F - 32.9 °F 83% 30.09 in 10.0 mi Calm Calm - N/A   Clear
11:55 PM 36.7 °F 34.1 °F 32.9 °F 86% 30.08 in 10.0 mi East 3.5 mph - N/A   Clear
11:56 PM 36.5 °F 33.9 °F 32.9 °F 87% 30.08 in 10.0 mi East 3.5 mph - N/A   Clear